Regional Weather Roundup
Issued by NWS

Home | Current Version | Previous Version | Text Only | Print | Product List | Glossary Off
Versions: 1 2 3 4 5 6 7 8 9 10 11 12 13 14 15 16 17 18 19 20 21 22 23 24 25 26 27 28 29 30 31 32 33 34 35 36 37 38 39 40 41 42 43 44 45 46 47 48 49 50

000
ASUS43 KFSD 311802
RWRSD

WEATHER ROUNDUP FOR SOUTH DAKOTA
NATIONAL WEATHER SERVICE SIOUX FALLS SD
100 PM CDT WED AUG 31 2016

NOTE: "FAIR" INDICATES FEW OR NO CLOUDS BELOW 12,000 FEET WITH NO
SIGNIFICANT WEATHER AND/OR OBSTRUCTIONS TO VISIBILITY.


SDZ001>005-009-010-012>017-311900-
NORTHWEST AND NORTH CENTRAL SOUTH DAKOTA

CITY           SKY/WX    TMP DP  RH WIND       PRES   REMARKS
BUFFALO          N/A     86  55  34 SE18      30.09F
MOBRIDGE       SUNNY     86  56  35 S14       30.18F
$$

SDZ012>016-024>037-041>051-057-063-072>074-311900-
SOUTHWEST AND SOUTH CENTRAL SOUTH DAKOTA

CITY           SKY/WX    TMP DP  RH WIND       PRES   REMARKS
RAPID CTY ARPT SUNNY     80  60  50 S20G25    30.22R
PIERRE         SUNNY     79  65  62 S10       30.20F
CUSTER         SUNNY     70  51  51 S10G17    30.34S
ELLSWORTH AFB  SUNNY     80  60  51 S23G29    30.20S
PHILIP         SUNNY     81  62  52 SE10G20   30.21F
PINE RIDGE     MOSUNNY   78  62  57 S8        30.24F
WINNER         FAIR      81  65  58 SE7       30.23F
$$

SDZ004>011-016>023-039-040-311900-
NORTHEAST SOUTH DAKOTA

CITY           SKY/WX    TMP DP  RH WIND       PRES   REMARKS
ABERDEEN       CLOUDY    74  60  61 VRB3      30.23S
WATERTOWN      SUNNY     77  52  41 SW5       30.24F
SISSETON         N/A     79  55  43 CALM      30.22F
$$

SDZ017-020-022-023-036>040-048>070-311900-
SOUTHEAST SOUTH DAKOTA

CITY           SKY/WX    TMP DP  RH WIND       PRES   REMARKS
SIOUX FALLS    CLOUDY    81  58  45 CALM      30.22F
HURON          PTSUNNY   75  64  68 S7        30.21F
CHAMBERLAIN    CLOUDY    78  72  79 S8        30.22F
MITCHELL       CLOUDY    80  60  50 VRB3      30.22F
YANKTON        SUNNY     79  57  47 SE5       30.20F
$$

ABBREVIATIONS USED IN REMARKS
   TC - TEMPERATURE IN CELSIUS
  WCI - WIND CHILL INDEX
   HX - HEAT INDEX
  VSB - VISIBILITY




USA.gov is the U.S. government's official web portal to all federal, state and local government web resources and services.